AFR11 KJFK-LFPG

Flight info

Callsign AFR11
Flight time N/A
Altitude 39000
Route MERIT DCT HFD DCT PUT DCT TOPPS DCT NEEKO/M084F400 DCT 54N050W 55N040W 55N030W 54N020W DCT MALOT DCT GISTI/N0490F410 DCT CRK DCT NORLA DCT PEWBI DCT OXLOW DCT SFD UM605 BIBAX
Aircraft A359/H-SDE2E3GHIJ3J4J5LM1ORWXY/LB1D1

Departure

Time 2026-04-30 14:51
Airport John F. Kennedy International Airport (KJFK)

Arrival

Time N/A
Airport Charles de Gaulle International Airport (LFPG)
Time Latitude Longitude Altitude Speed Heading
2026-04-30 14:13 40.64024 -73.77781 27 ft 0 kts 332°
2026-04-30 14:37 40.64018 -73.77777 26 ft 3 kts 332°
2026-04-30 14:37 40.64001 -73.77765 25 ft 3 kts 332°
2026-04-30 14:38 40.63983 -73.77755 25 ft 3 kts 328°
2026-04-30 14:38 40.63969 -73.77736 25 ft 3 kts 286°
2026-04-30 14:38 40.63967 -73.77711 24 ft 3 kts 246°
2026-04-30 14:38 40.63968 -73.77707 24 ft 0 kts 238°
2026-04-30 14:44 40.63958 -73.77728 27 ft 5 kts 238°
2026-04-30 14:44 40.63934 -73.77779 27 ft 8 kts 239°
2026-04-30 14:44 40.63907 -73.77794 27 ft 3 kts 158°
2026-04-30 14:44 40.63859 -73.77759 27 ft 10 kts 150°
2026-04-30 14:45 40.63793 -73.77700 26 ft 12 kts 138°
2026-04-30 14:45 40.63735 -73.77664 26 ft 9 kts 183°
2026-04-30 14:45 40.63690 -73.77672 26 ft 4 kts 158°
2026-04-30 14:45 40.63664 -73.77629 26 ft 10 kts 115°
2026-04-30 14:46 40.63678 -73.77579 26 ft 7 kts 39°
2026-04-30 14:46 40.63777 -73.77497 31 ft 22 kts 32°
2026-04-30 14:46 40.63914 -73.77391 27 ft 23 kts 30°
2026-04-30 14:46 40.64009 -73.77317 27 ft 25 kts 30°
2026-04-30 14:47 40.64209 -73.77158 27 ft 25 kts 31°
2026-04-30 14:47 40.64310 -73.77079 27 ft 17 kts 31°
2026-04-30 14:47 40.64418 -73.77008 26 ft 18 kts 16°
2026-04-30 14:47 40.64546 -73.76951 31 ft 20 kts 21°
2026-04-30 14:48 40.64677 -73.76864 26 ft 22 kts 30°
2026-04-30 14:48 40.64774 -73.76786 27 ft 0 kts 32°
2026-04-30 14:48 40.64825 -73.76743 28 ft 23 kts 32°
2026-04-30 14:48 40.64974 -73.76620 27 ft 26 kts 31°
2026-04-30 14:49 40.65095 -73.76508 28 ft 0 kts 69°
2026-04-30 14:49 40.65092 -73.76460 28 ft 10 kts 110°
2026-04-30 14:49 40.65052 -73.76392 29 ft 9 kts 135°
2026-04-30 14:49 40.64993 -73.76382 29 ft 8 kts 205°
2026-04-30 14:50 40.64554 -73.76724 26 ft 92 kts 210°
2026-04-30 14:50 40.63837 -73.77280 27 ft 145 kts 211°
2026-04-30 14:51 40.61915 -73.78798 963 ft 170 kts 216°
2026-04-30 14:51 40.60976 -73.79792 1514 ft 177 kts 224°
2026-04-30 14:51 40.59562 -73.82725 2291 ft 210 kts 243°
2026-04-30 14:52 40.58827 -73.84513 2594 ft 234 kts 243°
2026-04-30 14:52 40.58490 -73.88779 3760 ft 248 kts 284°
2026-04-30 14:52 40.58961 -73.90982 4434 ft 253 kts 287°
2026-04-30 14:53 40.60392 -73.95275 5480 ft 263 kts 312°
2026-04-30 14:53 40.61945 -73.96587 6010 ft 273 kts 339°
2026-04-30 14:54 40.65732 -73.95922 7429 ft 291 kts 27°
2026-04-30 14:54 40.69146 -73.92935 8891 ft 303 kts 38°
2026-04-30 14:55 40.72435 -73.89299 10275 ft 317 kts 39°
2026-04-30 14:55 40.74159 -73.87357 10622 ft 336 kts 39°
2026-04-30 14:55 40.77897 -73.83113 11318 ft 372 kts 39°
2026-04-30 14:56 40.81976 -73.78471 12177 ft 398 kts 38°
2026-04-30 14:56 40.86206 -73.73650 13467 ft 410 kts 38°
2026-04-30 14:57 40.88386 -73.71163 14018 ft 416 kts 38°
2026-04-30 14:57 40.92814 -73.66106 15213 ft 425 kts 38°
2026-04-30 14:58 40.97330 -73.60939 16423 ft 433 kts 38°
2026-04-30 14:58 40.99616 -73.58321 16996 ft 437 kts 38°
2026-04-30 14:58 41.04259 -73.52998 18167 ft 446 kts 39°
2026-04-30 14:59 41.08961 -73.47596 19250 ft 454 kts 39°
2026-04-30 15:00 41.16196 -73.39261 20991 ft 465 kts 39°
2026-04-30 15:00 41.21107 -73.33589 22131 ft 472 kts 39°
2026-04-30 15:01 41.26065 -73.27852 23278 ft 479 kts 39°
2026-04-30 15:01 41.27767 -73.25880 23612 ft 481 kts 39°
2026-04-30 15:01 41.33681 -73.19015 24663 ft 490 kts 39°
2026-04-30 15:02 41.36230 -73.15974 25095 ft 495 kts 43°
2026-04-30 15:02 41.38495 -73.12516 25628 ft 497 kts 53°
2026-04-30 15:03 41.44069 -73.00787 27017 ft 507 kts 60°
2026-04-30 15:03 41.47620 -72.92576 27806 ft 515 kts 60°
2026-04-30 15:04 41.51230 -72.84257 28621 ft 522 kts 59°
2026-04-30 15:04 41.56772 -72.71587 29786 ft 532 kts 59°
2026-04-30 15:05 41.62381 -72.58746 30610 ft 541 kts 59°
2026-04-30 15:06 41.66221 -72.49986 31046 ft 549 kts 58°
2026-04-30 15:06 41.70143 -72.41312 32093 ft 542 kts 58°
2026-04-30 15:07 41.73404 -72.34119 32547 ft 545 kts 58°
2026-04-30 15:07 41.77912 -72.24101 33237 ft 546 kts 58°
2026-04-30 15:08 41.81741 -72.15538 33789 ft 549 kts 58°
2026-04-30 15:08 41.86891 -72.03973 34924 ft 538 kts 59°
2026-04-30 15:09 41.90724 -71.95339 35407 ft 539 kts 59°
2026-04-30 15:09 41.94673 -71.86782 35800 ft 539 kts 52°
2026-04-30 15:10 41.99824 -71.79627 36352 ft 533 kts 40°
2026-04-30 15:11 42.11125 -71.66815 37301 ft 531 kts 38°
2026-04-30 15:11 42.16789 -71.60453 37741 ft 530 kts 38°
2026-04-30 15:12 42.25257 -71.50851 38195 ft 531 kts 38°
2026-04-30 15:13 42.30860 -71.44468 38558 ft 530 kts 39°
2026-04-30 15:14 42.42026 -71.31703 38836 ft 531 kts 39°
2026-04-30 15:14 42.50454 -71.22033 38858 ft 532 kts 39°
2026-04-30 15:17 42.75763 -70.92764 38852 ft 531 kts 40°
2026-04-30 15:19 42.98118 -70.66642 38837 ft 529 kts 40°
2026-04-30 17:39 54.06845 -49.52026 40319 ft 505 kts 78°
2026-04-30 17:42 54.14845 -48.93815 40321 ft 506 kts 78°
2026-04-30 17:43 54.18714 -48.64809 40334 ft 503 kts 78°
2026-04-30 17:44 54.23314 -48.29588 40330 ft 506 kts 79°
2026-04-30 17:47 54.30000 -47.76744 40347 ft 506 kts 79°
2026-04-30 17:48 54.35047 -47.35478 40351 ft 507 kts 79°
2026-04-30 17:50 54.40642 -46.88193 40349 ft 506 kts 80°
2026-04-30 17:52 54.44712 -46.52678 40356 ft 507 kts 80°
2026-04-30 17:54 54.50635 -45.99169 40360 ft 506 kts 81°
2026-04-30 17:56 54.55700 -45.51478 40365 ft 507 kts 81°
2026-04-30 17:58 54.59180 -45.17574 40363 ft 507 kts 81°
2026-04-30 18:00 54.63920 -44.69717 40373 ft 508 kts 82°
2026-04-30 18:01 54.66793 -44.39677 40362 ft 508 kts 82°
2026-04-30 18:02 54.70138 -44.03633 40368 ft 506 kts 82°
2026-04-30 18:04 54.73373 -43.67567 40371 ft 507 kts 82°
2026-04-30 18:06 54.77522 -43.19355 40373 ft 505 kts 83°
2026-04-30 18:08 54.80983 -42.77236 40374 ft 507 kts 83°
2026-04-30 18:10 54.84784 -42.28707 40374 ft 505 kts 83°
2026-04-30 18:11 54.87924 -41.86518 40373 ft 504 kts 84°
2026-04-30 18:13 54.90077 -41.56360 40380 ft 505 kts 84°
2026-04-30 18:14 54.92164 -41.26048 40376 ft 504 kts 84°
2026-04-30 18:15 54.94554 -40.89849 40376 ft 504 kts 84°
2026-04-30 18:16 54.96094 -40.65584 40381 ft 505 kts 84°
2026-04-30 18:17 54.96841 -40.53538 40377 ft 505 kts 85°
2026-04-30 18:18 54.97946 -40.35327 40382 ft 503 kts 85°
2026-04-30 18:18 54.98664 -40.23239 40380 ft 502 kts 85°
2026-04-30 18:19 54.99367 -40.11197 40376 ft 504 kts 85°
2026-04-30 18:19 55.00066 -39.99042 40375 ft 507 kts 85°
2026-04-30 18:20 55.00633 -39.86794 40373 ft 505 kts 87°
2026-04-30 18:20 55.01068 -39.74611 40374 ft 503 kts 87°
2026-04-30 18:21 55.01499 -39.62513 40381 ft 504 kts 87°
2026-04-30 18:21 55.01946 -39.50312 40374 ft 506 kts 87°
2026-04-30 18:22 55.02393 -39.38105 40375 ft 506 kts 87°
2026-04-30 18:22 55.03044 -39.19682 40373 ft 506 kts 87°
2026-04-30 18:23 55.03457 -39.07536 40373 ft 506 kts 87°
2026-04-30 18:23 55.03862 -38.95264 40375 ft 506 kts 87°
2026-04-30 18:24 55.04445 -38.76845 40376 ft 508 kts 88°
2026-04-30 18:25 55.04819 -38.64551 40376 ft 508 kts 88°
2026-04-30 18:25 55.05354 -38.46208 40375 ft 506 kts 88°
2026-04-30 18:26 55.05862 -38.27854 40378 ft 505 kts 88°
2026-04-30 18:27 55.06241 -38.09423 40377 ft 513 kts 89°
2026-04-30 18:28 55.06503 -37.90753 40374 ft 513 kts 89°
2026-04-30 18:28 55.06763 -37.72096 40382 ft 513 kts 89°
2026-04-30 18:29 55.07082 -37.47458 40376 ft 506 kts 89°
2026-04-30 18:30 55.07335 -37.22940 40379 ft 505 kts 89°
2026-04-30 18:31 55.07487 -37.04627 40379 ft 506 kts 89°
2026-04-30 18:32 55.07625 -36.86214 40382 ft 507 kts 89°
2026-04-30 18:33 55.07732 -36.67759 40376 ft 507 kts 90°
2026-04-30 18:33 55.07810 -36.49433 40381 ft 505 kts 90°
2026-04-30 18:34 55.07860 -36.31074 40382 ft 504 kts 90°
2026-04-30 18:35 55.07878 -36.18812 40381 ft 506 kts 90°
2026-04-30 18:35 55.07884 -36.06529 40379 ft 507 kts 90°
2026-04-30 18:36 55.07870 -35.88157 40385 ft 508 kts 90°
2026-04-30 18:37 55.07828 -35.69576 40379 ft 512 kts 90°
2026-04-30 18:37 55.07787 -35.57846 40381 ft 509 kts 90°
2026-04-30 18:38 55.07737 -35.46661 40388 ft 509 kts 90°
2026-04-30 18:38 55.07670 -35.34292 40386 ft 509 kts 90°
2026-04-30 18:39 55.07590 -35.21946 40386 ft 509 kts 90°
2026-04-30 18:39 55.07498 -35.09602 40386 ft 509 kts 91°
2026-04-30 18:40 55.07394 -34.97331 40384 ft 509 kts 91°
2026-04-30 18:40 55.07277 -34.84965 40384 ft 510 kts 91°
2026-04-30 18:41 55.07147 -34.72608 40388 ft 509 kts 90°
2026-04-30 18:41 55.07005 -34.60292 40383 ft 507 kts 91°
2026-04-30 18:42 55.06852 -34.47981 40383 ft 507 kts 91°
2026-04-30 18:42 55.06599 -34.29616 40386 ft 507 kts 91°
2026-04-30 18:45 55.05428 -33.61959 40390 ft 505 kts 91°
2026-04-30 18:46 55.05176 -33.49717 40390 ft 506 kts 91°
2026-04-30 18:46 55.04913 -33.37533 40390 ft 507 kts 91°
2026-04-30 18:47 55.04636 -33.25240 40390 ft 507 kts 91°
2026-04-30 18:47 55.04346 -33.12974 40393 ft 507 kts 91°
2026-04-30 18:48 55.04044 -33.00679 40388 ft 507 kts 91°
2026-04-30 18:48 55.03729 -32.88410 40399 ft 505 kts 91°
2026-04-30 18:49 55.03406 -32.76286 40389 ft 505 kts 91°
2026-04-30 18:49 55.03068 -32.64050 40393 ft 504 kts 91°
2026-04-30 18:50 55.02719 -32.51838 40395 ft 505 kts 92°
2026-04-30 18:50 55.02371 -32.40104 40392 ft 505 kts 92°
2026-04-30 18:51 55.01997 -32.27873 40395 ft 505 kts 92°
2026-04-30 18:51 55.01610 -32.15660 40396 ft 505 kts 92°
2026-04-30 18:52 55.01218 -32.03425 40395 ft 506 kts 92°
2026-04-30 18:52 55.00807 -31.91216 40389 ft 504 kts 92°
2026-04-30 18:53 55.00388 -31.79152 40395 ft 503 kts 92°
2026-04-30 18:53 54.99959 -31.67110 40392 ft 503 kts 92°
2026-04-30 18:54 54.99513 -31.54940 40404 ft 503 kts 92°
2026-04-30 18:54 54.99060 -31.42900 40398 ft 503 kts 92°
2026-04-30 18:55 54.98598 -31.30920 40398 ft 504 kts 92°
2026-04-30 18:55 54.97758 -31.12763 40397 ft 504 kts 95°
2026-04-30 18:56 54.96934 -30.94607 40398 ft 501 kts 94°
2026-04-30 18:57 54.96160 -30.76536 40398 ft 501 kts 94°
2026-04-30 18:57 54.95639 -30.64631 40396 ft 501 kts 94°
2026-04-30 18:58 54.94817 -30.46508 40395 ft 505 kts 94°
2026-04-30 18:59 54.93960 -30.28291 40399 ft 511 kts 94°
2026-04-30 19:00 54.92773 -30.03902 40396 ft 502 kts 94°
2026-04-30 19:01 54.91549 -29.79679 40394 ft 503 kts 95°
2026-04-30 19:02 54.90603 -29.61646 40400 ft 503 kts 95°
2026-04-30 19:03 54.89290 -29.37429 40397 ft 503 kts 95°
2026-04-30 19:04 54.87934 -29.13335 40397 ft 500 kts 95°
2026-04-30 19:05 54.86540 -28.89381 40397 ft 500 kts 95°
2026-04-30 19:06 54.85096 -28.65419 40395 ft 500 kts 95°
2026-04-30 19:06 54.83981 -28.47436 40401 ft 500 kts 96°
2026-04-30 19:07 54.82839 -28.29469 40397 ft 499 kts 95°
2026-04-30 19:08 54.81287 -28.05698 40398 ft 498 kts 96°
2026-04-30 19:09 54.80088 -27.87796 40398 ft 498 kts 96°
2026-04-30 19:09 54.79274 -27.75886 40401 ft 498 kts 96°
2026-04-30 19:10 54.77616 -27.52133 40399 ft 498 kts 96°
2026-04-30 19:11 54.76347 -27.34418 40395 ft 497 kts 96°
2026-04-30 19:12 54.75485 -27.22585 40400 ft 496 kts 96°
2026-04-30 19:12 54.74612 -27.10741 40388 ft 496 kts 96°
2026-04-30 19:13 54.72835 -26.87155 40389 ft 496 kts 96°
2026-04-30 19:14 54.71927 -26.75329 40390 ft 496 kts 96°
2026-04-30 19:14 54.71012 -26.63582 40385 ft 496 kts 96°
2026-04-30 19:15 54.70081 -26.51769 40390 ft 496 kts 96°
2026-04-30 19:15 54.68667 -26.34135 40380 ft 493 kts 97°
2026-04-30 19:16 54.67713 -26.22402 40400 ft 493 kts 97°
2026-04-30 19:17 54.66268 -26.04906 40376 ft 493 kts 97°
2026-04-30 19:17 54.64790 -25.87333 40378 ft 493 kts 97°
2026-04-30 19:18 54.63287 -25.69775 40382 ft 493 kts 97°
2026-04-30 19:19 54.62278 -25.58173 40392 ft 492 kts 97°
2026-04-30 19:19 54.60742 -25.40744 40377 ft 489 kts 97°
2026-04-30 19:20 54.59705 -25.29140 40370 ft 489 kts 97°
2026-04-30 19:21 54.58129 -25.11753 40369 ft 489 kts 98°
2026-04-30 19:22 54.56004 -24.88748 40369 ft 489 kts 98°
2026-04-30 19:23 54.53273 -24.59904 40367 ft 486 kts 98°
2026-04-30 19:24 54.51609 -24.42679 40360 ft 486 kts 98°
2026-04-30 19:25 54.48790 -24.14093 40355 ft 487 kts 98°
2026-04-30 19:26 54.46472 -23.91117 40349 ft 487 kts 98°
2026-04-30 19:27 54.44713 -23.73987 40352 ft 487 kts 98°
2026-04-30 19:28 54.42924 -23.56797 40351 ft 488 kts 98°
2026-04-30 19:29 54.40489 -23.33808 40344 ft 490 kts 99°
2026-04-30 19:30 54.38020 -23.10935 40336 ft 490 kts 99°
2026-04-30 19:31 54.35503 -22.88044 40339 ft 491 kts 99°
2026-04-30 19:31 54.33588 -22.70913 40337 ft 491 kts 99°
2026-04-30 19:32 54.32307 -22.59582 40325 ft 491 kts 99°
2026-04-30 19:32 54.30998 -22.48095 40331 ft 491 kts 99°
2026-04-30 19:33 54.29691 -22.36733 40322 ft 491 kts 99°
2026-04-30 19:33 54.28356 -22.25230 40312 ft 491 kts 99°
2026-04-30 19:34 54.27015 -22.13773 40321 ft 491 kts 100°
2026-04-30 19:35 54.24986 -21.96636 40311 ft 488 kts 100°
2026-04-30 19:35 54.23629 -21.85297 40319 ft 487 kts 100°
2026-04-30 19:36 54.22261 -21.73955 40317 ft 487 kts 100°
2026-04-30 19:36 54.20200 -21.57044 40316 ft 486 kts 101°
2026-04-30 19:37 54.18809 -21.45753 40312 ft 486 kts 101°
2026-04-30 19:37 54.17406 -21.34455 40305 ft 486 kts 101°
2026-04-30 19:38 54.15994 -21.23180 40306 ft 486 kts 101°
2026-04-30 19:38 54.14580 -21.11981 40304 ft 486 kts 101°
2026-04-30 19:39 54.13146 -21.00706 40301 ft 487 kts 101°
2026-04-30 19:39 54.11698 -20.89418 40293 ft 488 kts 101°
2026-04-30 19:40 54.10246 -20.78196 40294 ft 488 kts 101°
2026-04-30 19:40 54.08774 -20.66894 40286 ft 488 kts 102°
2026-04-30 19:41 54.07292 -20.55615 40288 ft 488 kts 102°
2026-04-30 19:41 54.05799 -20.44335 40289 ft 488 kts 102°
2026-04-30 19:42 54.04296 -20.33062 40282 ft 490 kts 102°
2026-04-30 19:42 54.02862 -20.21808 40279 ft 490 kts 100°
2026-04-30 19:43 54.01413 -20.10460 40270 ft 491 kts 100°
2026-04-30 19:44 53.99058 -19.93574 40262 ft 488 kts 103°
2026-04-30 19:44 53.97071 -19.82552 40262 ft 487 kts 105°
2026-04-30 19:45 53.95033 -19.71608 40259 ft 487 kts 104°
2026-04-30 19:45 53.93053 -19.60701 40249 ft 487 kts 105°
2026-04-30 19:46 53.91078 -19.49703 40251 ft 487 kts 103°
2026-04-30 19:46 53.89104 -19.38718 40238 ft 486 kts 105°
2026-04-30 19:47 53.87124 -19.27785 40240 ft 486 kts 104°
2026-04-30 19:47 53.85144 -19.16931 40241 ft 486 kts 104°
2026-04-30 19:48 53.83145 -19.06040 40226 ft 485 kts 104°
2026-04-30 19:48 53.81131 -18.95132 40227 ft 485 kts 105°
2026-04-30 19:49 53.79110 -18.84242 40223 ft 485 kts 105°
2026-04-30 19:49 53.76081 -18.68061 40216 ft 483 kts 105°
2026-04-30 19:50 53.74059 -18.57328 40214 ft 483 kts 105°
2026-04-30 19:50 53.72017 -18.46544 40206 ft 482 kts 106°
2026-04-30 19:51 53.69965 -18.35774 40200 ft 482 kts 105°
2026-04-30 19:51 53.67905 -18.25029 40200 ft 481 kts 106°
2026-04-30 19:52 53.65847 -18.14354 40192 ft 482 kts 105°
2026-04-30 19:52 53.63770 -18.03633 40203 ft 481 kts 106°
2026-04-30 19:53 53.61684 -17.92937 40195 ft 480 kts 105°
2026-04-30 19:53 53.59594 -17.82274 40182 ft 479 kts 106°
2026-04-30 19:54 53.57512 -17.71707 40183 ft 479 kts 107°
2026-04-30 19:54 53.55405 -17.61067 40183 ft 479 kts 106°
2026-04-30 19:55 53.53293 -17.50463 40170 ft 478 kts 107°
2026-04-30 19:55 53.51169 -17.39855 40166 ft 479 kts 107°
2026-04-30 19:56 53.49046 -17.29316 40172 ft 479 kts 107°
2026-04-30 19:56 53.46907 -17.18748 40162 ft 478 kts 107°
2026-04-30 19:57 53.44767 -17.08239 40153 ft 476 kts 108°
2026-04-30 19:57 53.42619 -16.97741 40152 ft 477 kts 107°
2026-04-30 19:58 53.40459 -16.87241 40142 ft 476 kts 108°
2026-04-30 19:58 53.38305 -16.76830 40144 ft 476 kts 107°
2026-04-30 19:59 53.36131 -16.66370 40136 ft 476 kts 108°
2026-04-30 20:00 53.32845 -16.50657 40138 ft 475 kts 109°
2026-04-30 20:00 53.30656 -16.40264 40125 ft 473 kts 109°
2026-04-30 20:01 53.27387 -16.24844 40125 ft 472 kts 109°
2026-04-30 20:01 53.25179 -16.14493 40117 ft 472 kts 109°
2026-04-30 20:02 53.21853 -15.98996 40114 ft 473 kts 109°
2026-04-30 20:03 53.18525 -15.83610 40109 ft 473 kts 109°
2026-04-30 20:03 53.16284 -15.73312 40098 ft 471 kts 109°
2026-04-30 20:04 53.14043 -15.63068 40104 ft 472 kts 109°
2026-04-30 20:05 53.10658 -15.47687 40098 ft 471 kts 110°
2026-04-30 20:05 53.07265 -15.32379 40089 ft 472 kts 110°
2026-04-30 20:06 53.04978 -15.22131 40087 ft 474 kts 110°
2026-04-30 20:06 53.02682 -15.11890 40088 ft 471 kts 110°
2026-04-30 20:07 53.00600 -15.01558 40089 ft 474 kts 102°
2026-04-30 20:07 53.00007 -14.90737 40074 ft 477 kts 91°
2026-04-30 20:08 52.99985 -14.85204 40080 ft 480 kts 90°
2026-04-30 20:08 53.00040 -14.74145 40075 ft 479 kts 90°
2026-04-30 20:09 53.00095 -14.63098 40075 ft 478 kts 90°
2026-04-30 20:09 53.00115 -14.46537 40075 ft 479 kts 91°
2026-04-30 20:10 53.00137 -14.35614 40445 ft 471 kts 90°
2026-04-30 20:10 53.00136 -14.30150 40460 ft 475 kts 91°
2026-04-30 20:10 53.00117 -14.24651 40347 ft 478 kts 91°
2026-04-30 20:11 53.00066 -14.13618 40632 ft 477 kts 91°
2026-04-30 20:11 52.99922 -14.02590 40895 ft 477 kts 97°
2026-04-30 20:12 52.98549 -13.91904 41046 ft 478 kts 106°
2026-04-30 20:12 52.97619 -13.86603 41058 ft 478 kts 107°
2026-04-30 20:13 52.95664 -13.76097 41057 ft 477 kts 108°
2026-04-30 20:13 52.93683 -13.65594 41052 ft 476 kts 108°
2026-04-30 20:14 52.91753 -13.55300 41055 ft 472 kts 108°
2026-04-30 20:14 52.89794 -13.44847 41051 ft 478 kts 108°
2026-04-30 20:15 52.87817 -13.34343 41050 ft 479 kts 108°
2026-04-30 20:15 52.85821 -13.23796 41050 ft 479 kts 108°
2026-04-30 20:16 52.83822 -13.13295 41052 ft 480 kts 109°
2026-04-30 20:16 52.81818 -13.02836 41040 ft 480 kts 109°
2026-04-30 20:17 52.79796 -12.92333 41041 ft 480 kts 109°
2026-04-30 20:17 52.77760 -12.81820 41041 ft 480 kts 109°
2026-04-30 20:18 52.75717 -12.71324 41038 ft 480 kts 109°
2026-04-30 20:18 52.73678 -12.60908 41035 ft 480 kts 109°
2026-04-30 20:19 52.71620 -12.50452 41038 ft 479 kts 109°
2026-04-30 20:19 52.69554 -12.40012 41034 ft 479 kts 109°
2026-04-30 20:20 52.67481 -12.29592 41034 ft 479 kts 110°
2026-04-30 20:20 52.65398 -12.19181 41034 ft 479 kts 110°
2026-04-30 20:21 52.63321 -12.08848 41027 ft 479 kts 110°
2026-04-30 20:21 52.61221 -11.98457 41031 ft 476 kts 110°
2026-04-30 20:22 52.59123 -11.88137 41031 ft 476 kts 110°
2026-04-30 20:22 52.57019 -11.77835 41031 ft 476 kts 110°
2026-04-30 20:23 52.54919 -11.67609 41026 ft 476 kts 110°
2026-04-30 20:23 52.52791 -11.57303 41026 ft 476 kts 110°
2026-04-30 20:24 52.50662 -11.47037 41029 ft 475 kts 111°
2026-04-30 20:24 52.48531 -11.36814 41022 ft 473 kts 111°
2026-04-30 20:25 52.45316 -11.21495 41023 ft 473 kts 111°
2026-04-30 20:26 52.42099 -11.06286 41023 ft 473 kts 111°
2026-04-30 20:26 52.38847 -10.91021 41022 ft 472 kts 111°
2026-04-30 20:27 52.34512 -10.70851 41019 ft 471 kts 111°
2026-04-30 20:28 52.30131 -10.50668 41017 ft 471 kts 111°
2026-04-30 20:30 52.24619 -10.25550 41022 ft 471 kts 112°
2026-04-30 20:31 52.17928 -9.95469 41021 ft 471 kts 108°
2026-04-30 20:32 52.14734 -9.80507 41137 ft 471 kts 113°
2026-04-30 20:32 52.12373 -9.70554 41022 ft 471 kts 113°
2026-04-30 20:33 52.08919 -9.55652 41025 ft 471 kts 112°
2026-04-30 20:34 52.05493 -9.40686 41044 ft 471 kts 112°
2026-04-30 20:35 52.02050 -9.25747 41033 ft 472 kts 112°
2026-04-30 20:35 51.98601 -9.10896 41031 ft 466 kts 113°
2026-04-30 20:36 51.96307 -9.01075 41045 ft 469 kts 113°
2026-04-30 20:37 51.93198 -8.87850 41047 ft 473 kts 113°
2026-04-30 20:37 51.90849 -8.77887 41032 ft 473 kts 113°
2026-04-30 20:38 51.88102 -8.66308 41049 ft 474 kts 113°
2026-04-30 20:38 51.85733 -8.56349 41048 ft 474 kts 113°
2026-04-30 20:39 51.83214 -8.42731 41048 ft 477 kts 105°
2026-04-30 20:40 51.80909 -8.25302 41043 ft 478 kts 104°
2026-04-30 20:40 51.79774 -8.16559 41052 ft 479 kts 104°
2026-04-30 20:41 51.77691 -8.00782 41056 ft 479 kts 104°
2026-04-30 20:41 51.76054 -7.88550 41054 ft 480 kts 105°
2026-04-30 20:42 51.74865 -7.79740 41055 ft 480 kts 105°
2026-04-30 20:43 51.72725 -7.64006 41060 ft 481 kts 105°
2026-04-30 20:43 51.71279 -7.53464 41056 ft 481 kts 105°
2026-04-30 20:44 51.69092 -7.37669 41069 ft 481 kts 105°
2026-04-30 20:45 51.66153 -7.16700 41063 ft 482 kts 105°
2026-04-30 20:45 51.64661 -7.06170 41063 ft 482 kts 105°
2026-04-30 20:46 51.61659 -6.85185 41074 ft 482 kts 105°
2026-04-30 20:47 51.59242 -6.69745 41068 ft 482 kts 107°
2026-04-30 20:48 51.56708 -6.54081 41078 ft 482 kts 107°
2026-04-30 20:48 51.55040 -6.43718 41078 ft 482 kts 107°
2026-04-30 20:49 51.53362 -6.33328 41086 ft 479 kts 107°
2026-04-30 20:50 51.50825 -6.17732 41083 ft 482 kts 107°
2026-04-30 20:50 51.49119 -6.07325 41083 ft 482 kts 107°
2026-04-30 20:51 51.47416 -5.96997 41085 ft 482 kts 107°
2026-04-30 20:51 51.44826 -5.81421 41089 ft 482 kts 107°
2026-04-30 20:52 51.43090 -5.71057 41092 ft 482 kts 107°
2026-04-30 20:53 51.40476 -5.55568 41098 ft 482 kts 107°
2026-04-30 20:53 51.38714 -5.45204 41099 ft 482 kts 107°
2026-04-30 20:54 51.36055 -5.29679 41099 ft 482 kts 107°
2026-04-30 20:55 51.33374 -5.14166 41105 ft 482 kts 107°
2026-04-30 20:55 51.31661 -5.03866 41100 ft 483 kts 103°
2026-04-30 20:56 51.30174 -4.87907 41099 ft 485 kts 99°
2026-04-30 20:57 51.28891 -4.71889 41099 ft 484 kts 99°
2026-04-30 20:57 51.28024 -4.61305 41100 ft 484 kts 99°
2026-04-30 20:58 51.26682 -4.45318 41099 ft 484 kts 99°
2026-04-30 20:58 51.25774 -4.34687 41101 ft 484 kts 99°
2026-04-30 20:59 51.24393 -4.18723 41100 ft 484 kts 99°
2026-04-30 21:00 51.22524 -3.97532 41105 ft 484 kts 100°
2026-04-30 21:01 51.21100 -3.81658 41102 ft 484 kts 101°
2026-04-30 21:02 51.19647 -3.65720 41106 ft 485 kts 100°
2026-04-30 21:02 51.18666 -3.55090 41116 ft 485 kts 100°
2026-04-30 21:03 51.17672 -3.44442 41114 ft 485 kts 100°
2026-04-30 21:03 51.16678 -3.33889 41121 ft 485 kts 100°
2026-04-30 21:04 51.15666 -3.23258 41118 ft 486 kts 100°
2026-04-30 21:04 51.14127 -3.07286 41121 ft 487 kts 101°
2026-04-30 21:05 51.13088 -2.96642 41119 ft 487 kts 101°
2026-04-30 21:05 51.12046 -2.86066 41122 ft 487 kts 101°
2026-04-30 21:06 51.10996 -2.75502 41126 ft 485 kts 101°
2026-04-30 21:06 51.09932 -2.64905 41127 ft 484 kts 101°
2026-04-30 21:07 51.08862 -2.54348 41128 ft 484 kts 101°
2026-04-30 21:07 51.07787 -2.43843 41128 ft 484 kts 101°
2026-04-30 21:08 51.06696 -2.33282 41127 ft 484 kts 101°
2026-04-30 21:08 51.05600 -2.22764 41138 ft 482 kts 101°
2026-04-30 21:09 51.04498 -2.12274 41136 ft 481 kts 101°
2026-04-30 21:09 51.03385 -2.01787 41145 ft 481 kts 101°
2026-04-30 21:10 51.02230 -1.91394 41143 ft 481 kts 102°
2026-04-30 21:10 51.00963 -1.80967 41146 ft 480 kts 102°
2026-04-30 21:11 50.99689 -1.70585 41151 ft 479 kts 102°
2026-04-30 21:11 50.98421 -1.60196 41166 ft 479 kts 102°
2026-04-30 21:12 50.97161 -1.49880 41150 ft 479 kts 102°
2026-04-30 21:12 50.95885 -1.39509 41160 ft 479 kts 102°
2026-04-30 21:13 50.94599 -1.29134 41160 ft 479 kts 102°
2026-04-30 21:13 50.93303 -1.18770 41159 ft 479 kts 102°
2026-04-30 21:14 50.92009 -1.08496 41166 ft 479 kts 103°
2026-04-30 21:14 50.90695 -0.98142 41153 ft 479 kts 103°
2026-04-30 21:15 50.89374 -0.87812 41175 ft 479 kts 103°
2026-04-30 21:15 50.88044 -0.77491 41175 ft 478 kts 103°
2026-04-30 21:16 50.86714 -0.67243 41176 ft 478 kts 103°
2026-04-30 21:16 50.85370 -0.56958 41176 ft 477 kts 103°
2026-04-30 21:17 50.84017 -0.46689 41173 ft 477 kts 103°
2026-04-30 21:17 50.82654 -0.36414 41178 ft 477 kts 103°
2026-04-30 21:18 50.81283 -0.26151 41178 ft 477 kts 103°
2026-04-30 21:18 50.79912 -0.15964 41179 ft 477 kts 103°
2026-04-30 21:19 50.78522 -0.05706 41171 ft 477 kts 103°
2026-04-30 21:19 50.76939 0.04462 41180 ft 477 kts 110°
2026-04-30 21:20 50.73896 0.13687 41184 ft 474 kts 128°
2026-04-30 21:20 50.69315 0.21018 41184 ft 473 kts 140°
2026-04-30 21:21 50.64224 0.27565 41185 ft 473 kts 142°
2026-04-30 21:22 50.56515 0.37211 41189 ft 470 kts 142°
2026-04-30 21:23 50.46407 0.49987 41180 ft 470 kts 141°
2026-04-30 21:23 50.38738 0.59666 41184 ft 470 kts 141°
2026-04-30 21:24 50.33643 0.66069 41183 ft 470 kts 141°
2026-04-30 21:24 50.28529 0.72480 41181 ft 471 kts 141°
2026-04-30 21:25 50.20854 0.82059 41184 ft 474 kts 141°
2026-04-30 21:26 50.13116 0.91683 41183 ft 474 kts 142°
2026-04-30 21:27 50.05147 1.00461 41189 ft 470 kts 160°
2026-04-30 21:27 50.01981 1.01618 41187 ft 469 kts 175°
2026-04-30 21:27 49.98713 1.01645 41188 ft 472 kts 181°
2026-04-30 21:28 49.88838 1.01300 41173 ft 475 kts 182°
2026-04-30 21:28 49.82639 0.98003 41178 ft 477 kts 214°
2026-04-30 21:29 49.80203 0.94535 41176 ft 479 kts 230°
2026-04-30 21:30 49.69214 0.75481 41173 ft 480 kts 219°
2026-04-30 21:31 49.60827 0.67258 41164 ft 477 kts 204°
2026-04-30 21:31 49.54778 0.63012 41164 ft 478 kts 203°
2026-04-30 21:32 49.48630 0.59410 41168 ft 477 kts 191°
2026-04-30 21:32 49.45379 0.58448 41161 ft 476 kts 189°
2026-04-30 21:32 49.38838 0.56726 41153 ft 477 kts 186°
2026-04-30 21:33 49.35538 0.56813 41166 ft 474 kts 169°
2026-04-30 21:33 49.29645 0.60976 41157 ft 472 kts 138°
2026-04-30 21:33 49.27482 0.64747 41162 ft 473 kts 123°
2026-04-30 21:34 49.26088 0.69224 41164 ft 475 kts 107°
2026-04-30 21:34 49.25878 0.79249 41170 ft 479 kts 76°
2026-04-30 21:34 49.27095 0.83994 41171 ft 481 kts 60°
2026-04-30 21:35 49.30286 0.92980 41179 ft 482 kts 72°
2026-04-30 21:35 49.31487 1.03008 41182 ft 479 kts 87°
2026-04-30 21:36 49.31605 1.13136 41183 ft 478 kts 92°
2026-04-30 21:37 49.30981 1.33502 41179 ft 478 kts 94°
2026-04-30 21:37 49.30571 1.43612 41187 ft 478 kts 94°
2026-04-30 21:38 49.30141 1.53770 41189 ft 478 kts 95°
2026-04-30 21:38 49.29703 1.63925 41194 ft 478 kts 94°
2026-04-30 21:39 49.29052 1.74040 41210 ft 476 kts 106°
2026-04-30 21:39 49.27792 1.78699 41193 ft 473 kts 122°
2026-04-30 21:39 49.25756 1.82624 41200 ft 472 kts 137°
2026-04-30 21:40 49.23093 1.85546 41197 ft 473 kts 153°
2026-04-30 21:40 49.19997 1.87243 41195 ft 474 kts 169°
2026-04-30 21:40 49.13487 1.88458 41185 ft 475 kts 168°
2026-04-30 21:41 49.07125 1.91160 41185 ft 475 kts 160°
2026-04-30 21:41 49.00948 1.94763 41185 ft 477 kts 158°
2026-04-30 21:42 48.94809 1.98665 41186 ft 477 kts 156°
2026-04-30 21:42 48.88703 2.02633 41186 ft 477 kts 156°
2026-04-30 21:43 48.82657 2.06581 41184 ft 476 kts 156°
2026-04-30 21:43 48.76577 2.10550 41183 ft 477 kts 156°
2026-04-30 21:44 48.70481 2.14522 41183 ft 477 kts 156°
2026-04-30 21:44 48.64373 2.18491 41182 ft 478 kts 156°
2026-04-30 21:45 48.58295 2.22431 41184 ft 479 kts 156°
2026-04-30 21:45 48.52179 2.26386 41184 ft 479 kts 156°
2026-04-30 21:46 48.46053 2.30335 41182 ft 478 kts 156°
2026-04-30 21:46 48.39933 2.34271 41177 ft 479 kts 157°
2026-04-30 21:47 48.33807 2.38201 41176 ft 479 kts 156°
2026-04-30 21:47 48.27659 2.42135 41173 ft 481 kts 157°
2026-04-30 21:48 48.21556 2.46029 41172 ft 480 kts 157°
2026-04-30 21:48 48.15413 2.49939 41174 ft 481 kts 157°
2026-04-30 21:49 48.09255 2.53847 41172 ft 480 kts 157°
2026-04-30 21:49 48.03094 2.57748 41171 ft 481 kts 157°
2026-04-30 21:50 47.96980 2.61609 41171 ft 481 kts 157°
2026-04-30 21:50 47.90809 2.65496 41167 ft 482 kts 157°
2026-04-30 21:51 47.84629 2.69378 41167 ft 482 kts 157°
2026-04-30 21:51 47.78451 2.73249 41168 ft 482 kts 157°
2026-04-30 21:52 47.72307 2.77089 41167 ft 483 kts 157°
2026-04-30 21:52 47.66113 2.80950 41168 ft 483 kts 157°
2026-04-30 21:53 47.59904 2.84810 41167 ft 484 kts 157°
2026-04-30 21:53 47.53701 2.88657 41166 ft 484 kts 157°
2026-04-30 21:54 47.47530 2.92475 41166 ft 484 kts 157°
2026-04-30 21:54 47.41309 2.96313 41173 ft 485 kts 157°
2026-04-30 21:55 47.35081 3.00146 41175 ft 485 kts 157°
2026-04-30 21:55 47.28849 3.03971 41178 ft 486 kts 158°
2026-04-30 21:56 47.22607 3.07793 41178 ft 486 kts 158°
2026-04-30 21:56 47.16413 3.11576 41178 ft 486 kts 158°
2026-04-30 21:57 47.10166 3.15380 41179 ft 486 kts 158°
2026-04-30 21:57 47.03929 3.19170 41182 ft 486 kts 158°
2026-04-30 21:58 46.97680 3.22957 41185 ft 486 kts 158°
2026-04-30 21:58 46.91434 3.26733 41183 ft 486 kts 158°
2026-04-30 21:59 46.85222 3.30479 41186 ft 487 kts 158°
2026-04-30 22:00 46.75833 3.36123 41190 ft 487 kts 158°
2026-04-30 22:00 46.66432 3.41752 41195 ft 487 kts 158°
2026-04-30 22:01 46.60203 3.45471 41191 ft 487 kts 158°
2026-04-30 22:01 46.53934 3.49203 41195 ft 487 kts 158°
2026-04-30 22:02 46.47669 3.52925 41193 ft 487 kts 158°
2026-04-30 22:02 46.41386 3.56647 41192 ft 487 kts 158°
2026-04-30 22:03 46.35114 3.60354 41191 ft 487 kts 158°
2026-04-30 22:03 46.28872 3.64034 41191 ft 488 kts 158°
2026-04-30 22:04 46.22575 3.67737 41194 ft 489 kts 158°
2026-04-30 22:05 46.13130 3.73274 41195 ft 489 kts 158°
2026-04-30 22:05 46.06828 3.76958 41197 ft 489 kts 159°
2026-04-30 22:06 46.00559 3.80613 41197 ft 489 kts 159°
2026-04-30 22:06 45.91090 3.86116 41203 ft 489 kts 159°
2026-04-30 22:07 45.84772 3.89777 41205 ft 489 kts 159°
2026-04-30 22:07 45.79525 3.92811 41207 ft 489 kts 159°